Date,TemperatureHighF,TemperatureAvgF,TemperatureLowF,DewpointHighF,DewpointAvgF,DewpointLowF,HumidityHigh,HumidityAvg,HumidityLow,PressureMaxIn,PressureMinIn,WindSpeedMaxMPH,WindSpeedAvgMPH,GustSpeedMaxMPH,PrecipitationSumIn
2013-3-1,31.3,28.1,26.1,26.0,24.0,22.0,88,84,77,30.21,30.07,0,0,0,0.00
2013-3-2,29.6,25.2,16.4,24.0,19.6,12.0,92,79,67,30.22,30.17,3,0,0,0.00
2013-3-3,33.5,23.3,13.9,20.0,15.4,11.0,87,73,46,30.20,30.11,0,0,0,0.00
2013-3-4,34.6,30.0,24.3,29.0,24.6,20.0,87,80,73,30.14,29.97,0,0,0,0.00
2013-3-5,35.5,32.2,28.0,34.0,30.7,27.0,96,93,87,30.00,29.79,0,0,0,0.36
2013-3-6,31.3,29.3,27.7,27.0,26.1,25.0,95,88,83,30.34,30.01,0,0,0,0.06
2013-3-7,38.8,30.1,21.7,28.0,24.6,20.0,92,81,59,30.44,30.33,0,0,0,0.15
2013-3-8,37.7,28.3,15.2,31.0,24.2,13.0,95,85,73,30.50,30.32,0,0,0,0.01
2013-3-9,40.2,36.7,31.9,36.0,32.7,28.0,92,86,83,30.31,29.83,0,0,0,0.04
2013-3-10,51.0,43.2,36.9,47.0,41.6,35.0,97,94,85,29.88,29.58,0,0,0,0.94
2013-3-11,45.5,37.6,32.8,45.0,36.1,29.0,100,94,86,29.85,29.58,0,0,0,0.09
2013-3-12,38.9,32.3,27.9,32.0,27.2,21.0,93,81,71,30.07,29.85,0,0,0,0.03
2013-3-13,33.4,28.9,25.3,23.0,21.3,18.0,84,74,53,30.36,30.07,0,0,0,0.00
2013-3-14,36.0,30.6,23.6,33.0,26.6,19.0,94,85,70,30.36,30.09,0,0,0,0.03
2013-3-15,46.1,37.5,29.2,41.0,34.7,28.0,95,90,81,30.08,29.71,0,0,0,0.00
2013-3-16,37.6,34.5,31.5,35.0,31.7,27.0,100,89,82,30.13,29.68,0,0,0,0.00
2013-3-17,39.5,33.2,29.3,30.0,26.3,23.0,83,76,65,30.20,29.97,0,0,0,0.00
2013-3-18,37.2,31.7,24.3,35.0,28.3,16.0,100,87,71,29.97,29.65,0,0,0,0.08
2013-3-19,36.9,27.5,19.6,22.0,17.3,12.0,76,66,48,30.14,29.88,0,0,0,0.00
2013-3-20,28.0,22.7,16.0,20.0,13.3,8.0,83,68,57,30.16,30.07,0,0,0,0.00
2013-3-21,34.9,23.9,14.6,19.0,14.5,9.0,85,69,50,30.11,30.03,2,0,0,0.00
2013-3-22,42.4,29.8,17.2,23.0,19.7,15.0,92,68,43,30.09,30.02,0,0,0,0.00
2013-3-23,47.0,34.7,24.2,29.0,25.0,21.0,91,70,44,30.13,29.99,0,0,0,0.00
2013-3-24,37.0,33.5,30.8,31.0,28.3,26.0,95,82,70,30.02,29.65,0,0,0,0.00
2013-3-25,36.3,32.7,28.7,31.0,28.3,25.0,100,84,78,30.11,29.70,0,0,0,0.00
2013-3-26,39.9,35.6,32.6,31.0,28.6,27.0,84,76,62,30.28,30.10,0,0,0,0.00
2013-3-27,43.6,36.7,28.4,30.0,25.9,21.0,83,66,46,30.35,30.28,0,0,0,0.00
2013-3-28,51.2,36.4,26.0,31.0,26.5,21.0,89,70,44,30.38,30.28,0,0,0,0.00
2013-3-29,55.3,43.3,30.1,37.0,31.1,24.0,93,65,41,30.32,30.22,0,0,0,0.00
2013-3-30,59.2,44.6,28.0,44.0,34.3,22.0,85,69,48,30.25,29.87,0,0,0,0.00
2013-3-31,60.7,48.8,37.5,45.0,38.8,28.0,95,71,41,29.90,29.73,0,0,0,0.01